• Em Portugal
  • Lista de países
  • Para 7 dias
  • Temperatura da água
  • Mapas de satélite
  • Mapa do tempo
  • Widgets de tempo
  • user-avatar
    Iniciar Sessão

    Previsão horária em Lisboa

    Hoje, 16 Julho, Segunda-feira

    Tempo Temperatura Precipitação Vento Pressão Humidade
    00:00 +18°C° 0 mm 3 m/s 762 mmHg 93%
    01:00 +18°C° 0 mm 3 m/s 762 mmHg 94%
    02:00 +18°C° 0 mm 3 m/s 761 mmHg 95%
    03:00 +18°C° 0 mm 3 m/s 762 mmHg 95%
    04:00 +17°C° 0 mm 3 m/s 762 mmHg 95%
    05:00 +18°C° 0 mm 3 m/s 762 mmHg 93%
    06:00 +20°C° 0 mm 3 m/s 762 mmHg 83%
    07:00 +22°C° 0 mm 3 m/s 762 mmHg 73%
    08:00 +23°C° 0 mm 4 m/s 762 mmHg 63%
    09:00 +26°C° 0 mm 4 m/s 762 mmHg 55%
    10:00 +28°C° 0 mm 4 m/s 762 mmHg 49%
    11:00 +28°C° 0 mm 5 m/s 762 mmHg 49%
    12:00 +29°C° 0 mm 5 m/s 762 mmHg 46%
    13:00 +30°C° 0 mm 5 m/s 762 mmHg 43%
    14:00 +30°C° 0 mm 6 m/s 761 mmHg 40%
    15:00 +30°C° 0 mm 6 m/s 761 mmHg 42%
    16:00 +29°C° 0 mm 6 m/s 761 mmHg 44%
    17:00 +28°C° 0 mm 7 m/s 761 mmHg 46%
    18:00 +26°C° 0 mm 6 m/s 761 mmHg 53%
    19:00 +23°C° 0 mm 6 m/s 761 mmHg 60%
    20:00 +21°C° 0 mm 6 m/s 761 mmHg 67%
    21:00 +20°C° 0 mm 5 m/s 761 mmHg 72%
    22:00 +19°C° 0 mm 5 m/s 761 mmHg 77%
    23:00 +17°C° 0 mm 5 m/s 761 mmHg 82%

    Amanhã, 17 Julho, Terça-feira

    Tempo Temperatura Precipitação Vento Pressão Humidade
    00:00 +17°C° 0 mm 5 m/s 760 mmHg 85%
    01:00 +17°C° 0 mm 5 m/s 760 mmHg 88%
    02:00 +17°C° 0 mm 4 m/s 759 mmHg 91%
    03:00 +17°C° 0 mm 4 m/s 759 mmHg 92%
    04:00 +17°C° 0 mm 4 m/s 759 mmHg 93%
    05:00 +17°C° 0 mm 4 m/s 759 mmHg 93%
    06:00 +20°C° 0 mm 5 m/s 759 mmHg 82%
    07:00 +22°C° 0 mm 5 m/s 759 mmHg 70%
    08:00 +25°C° 0 mm 5 m/s 759 mmHg 59%
    09:00 +27°C° 0 mm 6 m/s 759 mmHg 52%
    10:00 +29°C° 0 mm 6 m/s 759 mmHg 46%
    11:00 +32°C° 0 mm 6 m/s 758 mmHg 39%
    12:00 +32°C° 0 mm 7 m/s 758 mmHg 39%
    13:00 +32°C° 0 mm 7 m/s 758 mmHg 38%
    14:00 +33°C° 0 mm 8 m/s 757 mmHg 38%
    15:00 +31°C° 0 mm 8 m/s 757 mmHg 43%
    16:00 +28°C° 0 mm 8 m/s 757 mmHg 48%
    17:00 +27°C° 0 mm 8 m/s 757 mmHg 53%
    18:00 +24°C° 0 mm 8 m/s 757 mmHg 60%
    19:00 +22°C° 0 mm 7 m/s 757 mmHg 67%
    20:00 +20°C° 0 mm 7 m/s 757 mmHg 75%
    21:00 +19°C° 0 mm 6 m/s 757 mmHg 78%
    22:00 +19°C° 0 mm 6 m/s 758 mmHg 82%
    23:00 +17°C° 0 mm 5 m/s 758 mmHg 86%

    Depois de amanhã, 18 Julho, Quarta-feira

    Tempo Temperatura Precipitação Vento Pressão Humidade
    00:00 +17°C° 0 mm 5 m/s 757 mmHg 87%
    01:00 +16°C° 0 mm 6 m/s 757 mmHg 89%
    02:00 +16°C° 0 mm 6 m/s 757 mmHg 90%
    03:00 +16°C° 0 mm 5 m/s 757 mmHg 90%
    04:00 +16°C° 0 mm 5 m/s 757 mmHg 90%
    05:00 +16°C° 0 mm 5 m/s 757 mmHg 90%
    06:00 +19°C° 0 mm 5 m/s 758 mmHg 81%
    07:00 +21°C° 0 mm 5 m/s 758 mmHg 72%
    08:00 +23°C° 0 mm 5 m/s 758 mmHg 63%
    09:00 +25°C° 0 mm 5 m/s 758 mmHg 57%
    10:00 +27°C° 0 mm 6 m/s 759 mmHg 51%
    11:00 +28°C° 0 mm 6 m/s 759 mmHg 45%
    12:00 +28°C° 0 mm 6 m/s 759 mmHg 45%
    13:00 +28°C° 0 mm 6 m/s 758 mmHg 45%
    14:00 +28°C° 0 mm 7 m/s 758 mmHg 44%
    15:00 +27°C° 0 mm 7 m/s 758 mmHg 48%
    16:00 +26°C° 0 mm 7 m/s 758 mmHg 52%
    17:00 +24°C° 0 mm 7 m/s 758 mmHg 55%
    18:00 +22°C° 0 mm 7 m/s 758 mmHg 63%
    19:00 +21°C° 0 mm 6 m/s 759 mmHg 70%
    20:00 +19°C° 0 mm 6 m/s 759 mmHg 78%
    21:00 +17°C° 0 mm 6 m/s 759 mmHg 81%
    22:00 +17°C° 0 mm 5 m/s 759 mmHg 84%
    23:00 +16°C° 0 mm 5 m/s 759 mmHg 87%

    19 Julho, Quinta-feira

    Tempo Temperatura Precipitação Vento Pressão Humidade
    00:00 +16°C° 0 mm 5 m/s 759 mmHg 88%
    01:00 +16°C° 0 mm 5 m/s 759 mmHg 89%
    02:00 +16°C° 0 mm 5 m/s 759 mmHg 90%
    03:00 +16°C° 0 mm 5 m/s 759 mmHg 89%
    04:00 +16°C° 0 mm 5 m/s 759 mmHg 89%
    05:00 +16°C° 0 mm 5 m/s 759 mmHg 88%
    06:00 +19°C° 0 mm 5 m/s 759 mmHg 80%
    07:00 +21°C° 0 mm 5 m/s 759 mmHg 72%
    08:00 +22°C° 0 mm 5 m/s 760 mmHg 63%
    09:00 +24°C° 0 mm 6 m/s 760 mmHg 57%
    10:00 +26°C° 0 mm 6 m/s 760 mmHg 51%
    11:00 +28°C° 0 mm 6 m/s 760 mmHg 45%
    12:00 +28°C° 0 mm 7 m/s 760 mmHg 45%
    13:00 +28°C° 0 mm 7 m/s 759 mmHg 45%
    14:00 +28°C° 0 mm 7 m/s 759 mmHg 45%
    15:00 +27°C° 0 mm 7 m/s 759 mmHg 49%
    16:00 +26°C° 0 mm 8 m/s 759 mmHg 53%
    17:00 +24°C° 0 mm 8 m/s 759 mmHg 57%
    18:00 +23°C° 0 mm 7 m/s 759 mmHg 65%
    19:00 +21°C° 0 mm 6 m/s 760 mmHg 73%
    20:00 +19°C° 0 mm 6 m/s 760 mmHg 80%
    21:00 +19°C° 0 mm 6 m/s 760 mmHg 83%
    22:00 +17°C° 0 mm 6 m/s 760 mmHg 85%
    23:00 +17°C° 0 mm 5 m/s 760 mmHg 88%

    20 Julho, Sexta-feira

    Tempo Temperatura Precipitação Vento Pressão Humidade
    00:00 +17°C° 0 mm 5 m/s 760 mmHg 88%
    01:00 +17°C° 0 mm 5 m/s 759 mmHg 89%
    02:00 +17°C° 0 mm 5 m/s 759 mmHg 89%
    03:00 +17°C° 0 mm 5 m/s 759 mmHg 89%
    04:00 +17°C° 0 mm 5 m/s 759 mmHg 89%
    05:00 +17°C° 0 mm 5 m/s 759 mmHg 90%
    06:00 +20°C° 0 mm 6 m/s 759 mmHg 78%
    07:00 +22°C° 0 mm 6 m/s 760 mmHg 66%
    08:00 +24°C° 0 mm 6 m/s 760 mmHg 54%
    09:00 +27°C° 0 mm 6 m/s 760 mmHg 47%
    10:00 +28°C° 0 mm 7 m/s 760 mmHg 40%
    11:00 +30°C° 0 mm 7 m/s 759 mmHg 33%
    12:00 +30°C° 0 mm 7 m/s 759 mmHg 32%
    13:00 +32°C° 0 mm 8 m/s 759 mmHg 32%
    14:00 +32°C° 0 mm 8 m/s 759 mmHg 31%
    15:00 +31°C° 0 mm 9 m/s 759 mmHg 35%
    16:00 +28°C° 0 mm 9 m/s 758 mmHg 39%
    17:00 +27°C° 0 mm 9 m/s 758 mmHg 43%
    18:00 +24°C° 0 mm 8 m/s 759 mmHg 52%
    19:00 +22°C° 0 mm 8 m/s 759 mmHg 61%
    20:00 +20°C° 0 mm 8 m/s 759 mmHg 70%
    21:00 +20°C° 0 mm 7 m/s 759 mmHg 74%
    22:00 +18°C° 0 mm 7 m/s 759 mmHg 78%
    23:00 +19°C° 0 mm 6 m/s 759 mmHg 82%

    21 Julho, Sábado

    Tempo Temperatura Precipitação Vento Pressão Humidade
    00:00 +17°C° 0 mm 6 m/s 758 mmHg 84%
    01:00 +17°C° 0 mm 6 m/s 758 mmHg 87%
    02:00 +17°C° 0 mm 5 m/s 758 mmHg 90%
    03:00 +17°C° 0 mm 5 m/s 758 mmHg 90%
    04:00 +17°C° 0 mm 5 m/s 758 mmHg 90%
    05:00 +17°C° 0 mm 5 m/s 758 mmHg 90%
    06:00 +20°C° 0 mm 5 m/s 758 mmHg 77%
    07:00 +23°C° 0 mm 4 m/s 758 mmHg 63%
    08:00 +27°C° 0 mm 4 m/s 758 mmHg 50%
    09:00 +29°C° 0 mm 4 m/s 758 mmHg 43%
    10:00 +33°C° 0 mm 5 m/s 758 mmHg 36%
    11:00 +35°C° 0 mm 5 m/s 758 mmHg 29%
    12:00 +36°C° 0 mm 5 m/s 757 mmHg 28%
    13:00 +38°C° 0 mm 6 m/s 757 mmHg 27%
    14:00 +38°C° 0 mm 6 m/s 757 mmHg 25%
    15:00 +36°C° 0 mm 6 m/s 756 mmHg 28%
    16:00 +34°C° 0 mm 7 m/s 756 mmHg 31%
    17:00 +33°C° 0 mm 7 m/s 756 mmHg 34%
    18:00 +30°C° 0 mm 6 m/s 756 mmHg 41%
    19:00 +27°C° 0 mm 6 m/s 757 mmHg 48%
    20:00 +25°C° 0 mm 5 m/s 757 mmHg 54%
    21:00 +23°C° 0 mm 4 m/s 757 mmHg 58%
    22:00 +22°C° 0 mm 4 m/s 757 mmHg 61%
    23:00 +22°C° 0 mm 4 m/s 757 mmHg 64%
    Mostrar mais